Regional Weather Roundup
Issued by NWS Wakefield, VA

Home | Current Version | Previous Version | Text Only | Print | Product List | Glossary Off
Versions: 1 2 3 4 5 6 7 8 9 10 11 12 13 14 15 16 17 18 19 20 21 22 23 24 25 26 27

000
ASUS41 KAKQ 250815
RWRAKQ

REGIONAL WEATHER ROUNDUP
NATIONAL WEATHER SERVICE WAKEFIELD VA
400 AM EDT WED MAY 25 2016

Note: "fair" indicates few or no clouds below 12,000 feet with no
significant weather and/or obstructions to visibility. * = Denotes
station may not report precipitation (e.g., rain,snow,etc.),
thunder or fog.

VAZ042-051-052>054-056-250900-
NORTHERN VIRGINIA

CITY           SKY/WX    TMP DP  RH WIND       PRES   REMARKS
WASH NATIONAL  FAIR      61  58  90 S5        30.10R
DULLES         FAIR      56  52  86 CALM      30.10R
FORT BELVOIR   FAIR      54  53  95 CALM      30.09S
QUANTICO       FAIR      60  55  83 NW8       30.10S
FREDERICKSBRG* FAIR      57  57 100 CALM      30.10S
STAFFORD*      FAIR      53  51  95 NW3       30.14S
WARRENTON      FAIR      54  49  85 CALM      30.11R
CULPEPER*      FAIR      54  54 100 CALM      30.13R
MANASSAS*      FAIR      54  54 100 CALM      30.10S
LEESBURG*      FAIR      61  54  77 W3        30.11R
WINCHESTER     FAIR      61  50  67 SW6       30.12S
FRONT ROYAL*   FAIR      57  52  82 S6        30.12S
LURAY*         FAIR      52  52 100 CALM      30.15S
$$

VAZ048-049-060>072-079>083-250900-
CENTRAL AND SOUTH CENTRAL VIRGINIA

CITY           SKY/WX    TMP DP  RH WIND       PRES   REMARKS
RICHMOND       FAIR      64  55  72 W5        30.11R
CHESTERFIELD*  FAIR      61  46  59 CALM      30.13R
PETERSBURG*    FAIR      63  57  81 W6        30.13S
HANOVER        FAIR      58  55  90 CALM      30.12S
TAPPAHANNOCK*  FAIR      57  57  99 CALM      30.11R
QUINTON*       FAIR      58  57  97 CALM      30.11R
CHARLOTTSVILLE FAIR      61  51  70 W5        30.13S
GORDONSVILLE*  FAIR      55  54  97 CALM      30.12R
ORANGE*        FAIR      61  52  72 CALM      30.14R
LOUISA*        FAIR      55  55 100 CALM      30.11S
BUMPASS*       FAIR      55  55  98 CALM      30.11S
FARMVILLE*     MOCLDY    56  56 100 CALM      30.13S
CREWE*         FAIR      61  58  92 CALM      30.14R
FORT PICKETT*  NOT AVBL
CHASE CITY*    PTSUNNY   60  58  94 CALM      30.16R
CLARKSVILLE*   PTSUNNY   59  57  94 W3        30.15R
SOUTH HILL*    FAIR      61  55  83 SW3       30.20R
LAWRENCEVILLE* FAIR      58  55  92 CALM      30.14R
EMPORIA*       FAIR      55  54  94 CALM      30.15R
$$

VAZ088>098-250900-
SOUTHEAST VIRGINIA

CITY           SKY/WX    TMP DP  RH WIND       PRES   REMARKS
NORFOLK        MOCLDY    65  56  72 SW9       30.12R
VIRGINIA BEACH MOCLDY    68  55  63 SW8       30.12R
NORFOLK NAVAL  FAIR      67  56  67 SW7       30.13S
WEST POINT*    MOCLDY    58  56  95 CALM      30.13R
SALUDA*        FAIR      62  58  88 CALM      30.10S
NEWPORT NEWS   FAIR      66  56  70 SW7       30.12R
LANGLEY AFB    MOCLDY    67  57  69 SW7       30.12R
FORT EUSTIS    NOT AVBL
WILLIAMSBURG*  FAIR      68  57  68 W6        30.13R
HR EXEC AP*      N/A     57  54  88 W3        30.15R
FRANKLIN*      FAIR      61  56  83 S5        30.14S
US460-WAKEFLD  FAIR      58  56  93 CALM      30.13R
$$

VAZ020-022-025-037-045-250900-
WEST CENTRAL AND SOUTHWEST VIRGINIA

CITY           SKY/WX    TMP DP  RH WIND       PRES   REMARKS
STAUNTON*      FAIR      49  48  97 CALM      30.19S
WAYNESBORO*    FAIR      50  48  92 CALM      30.18S
HOT SPRINGS VA FAIR      58  46  62 NW3       30.24S
LYNCHBURG      FAIR      54  53  97 CALM      30.17R
DANVILLE       FAIR      55  54  96 SW3       30.17R
SOUTH BOSTON*  CLOUDY    56  55  96 CALM      30.16R
MARTINSVILLE   FAIR      48  48 100 CALM      30.20S
ROANOKE        FAIR      56  51  84 CALM      30.20R
BLACKSBURG     FAIR      51  50  97 CALM      30.25S
DUBLIN*        FAIR      54  51  90 CALM      30.24S
MARION*        FAIR      50  49  95 SW3       30.27R
HILLSVILLE*    FAIR      55  49  81 S6        30.23F
RICHLANDS*     FAIR      55  43  62 SE5       30.24S
WISE*          FAIR      55  41  58 CALM      30.24S
ABINGDON*      FAIR      54  51  89 CALM      30.23S
$$

MDZ021>025-VAZ099-100-250900-
SOUTHERN MARYLAND AND THE DELMARVA PENINSULA

CITY           SKY/WX    TMP DP  RH WIND       PRES   REMARKS
PATUXENT RIVER CLEAR     61  54  77 W5        30.08R
BAY BRIDGE APT CLEAR     64  54  68 W3        30.07R
LEONARDTOWN    CLEAR     59  54  82 CALM      30.10S
DOVER          NOT AVBL
GEORGETOWN     CLEAR     64  55  72 W3        30.07R
EASTON         CLEAR     62  59  90 SW5       30.11R
CAMBRIDGE        N/A     55  54  94 CALM      30.07R
SALISBURY      CLEAR     60  56  86 CALM      30.08R
OCEAN CITY     CLEAR     66  56  70 W8        30.07R
WALLOPS ISLAND FAIR      68  58  70 W8        30.09R
ACCOMACK*      FAIR      64  55  72 SW5       30.10R
$$

NCZ012>017-030>032-250900-
NORTH CENTRAL AND EASTERN NORTH CAROLINA

CITY           SKY/WX    TMP DP  RH WIND       PRES   REMARKS
ROANOKE RAPIDS FAIR      57  54  88 SW5       30.15R
RALEIGH        MOCLDY    62  55  77 CALM      30.17R
ELIZABETH CITY CLEAR     62  58  86 SW9       30.14R
AHOSKIE*       CLEAR     59  55  86 CALM      30.15R
EDENTON*       CLEAR    N/A N/A N/A SW6       30.16R
CURRITUCK*     PTCLDY    65  59  79 SW6       30.15R
KILL DEVIL HLS CLEAR     65  59  79 SW6       30.14R
MANTEO         CLEAR     65  62  88 W3        30.16R
CAPE HATTERAS  CLEAR     66  62  87 W5        30.16S
TARBORO*       FAIR      63  57  82 SW5       30.17R
GOLDSBORO      CLEAR     62  62  99 SW5       30.17R
WASHINGTON     CLEAR     61  56  84 SW5       30.17R
GREENVILLE     CLEAR     63  59  88 SW5       30.18R
NEW BERN       CLEAR     62  56  80 W5        30.19R
WILMINGTON     PTCLDY    62  59  90 SW3       30.18S
$$

VAZ048-250900-
ELSEWHERE

CITY           SKY/WX    TMP DP  RH WIND       PRES   REMARKS
HARRISBURG PA  PTCLDY    55  48  77 CALM      30.06R
BALTIMORE      CLEAR     61  50  67 W7        30.07R
ANNAPOLIS      CLEAR     64  52  64 NW3       30.07R
ANDREWS AFB    FAIR      62  52  69 W6        30.08R
PHILADELPHIA   CLEAR     61  52  72 W3        30.06R
HENDERSON NC   PTCLDY    58  54  88 SW5       30.16S
GREENSBORO     CLEAR     62  54  74 SW3       30.18R
ROCKY MOUNT    CLEAR     60  56  86 S6        30.16S
$$

VAZ100-250900-
MARINE

STATION/POSITION TIME  TEMP    WIND        PRES    WAVE   SWELL
                       AIR SEA DIR/SP/G            HT/PER HT/PER
                 (UTC) (F)     (DEG/KT/KT) (MB)    (FT/S) (FT/S)
BRANDYWINE LGT   0700   65     260/ 16/ 17 1017.2R
CAPE MAY NJ      0700   63 65  270/  8/ 10 1017.0R
LEWES DE         0700   67 59  240/  6/  8 1017.2R
15NM E FENWICK I 0750   61 56              1017.7R   2/ 9
OCEAN-CITY-INLET 0700   67 59  280/  9/ 11 1017.1R
WACHAPREAGUE VA  0700   68 68  250/  5/  7 1018.4R
THOMAS POINT MD  0800   69 63  280/ 11/ 11 1019.4R
GOOSES REEF MD   0800   66 64  250/  8/  8 1019.4R
COVE POINT MD    0700   67     280/ 10/ 14 1018.7R
SOLOMONS ISLAND  0700   62 64  330/  3/  5   N/A
BISHOPS HEAD MD  0700   66 69  270/  5/  8 1018.4R
PINEY POINT MD   0700          330/  6/  6   N/A
POTOMAC MD       0800   65 63  300/  6/  8 1018.0R   0
CAMBRIDGE MD     0700   67 63  220/  5/  7 1017.1R
LEWISETTA VA     0700   68 66  260/  8/  9 1018.1R
RAPPAHANNOCK LGT 0700          230/ 11/ 11 1019.5R
STINGRAY PT      0700   68 66  290/  4/  4 1019.4R
YORK RVR RNG VA  0700   69     250/  9/ 10 1018.6R
YORKTOWN VA      0700   69 65  230/  9/ 12 1018.9R
JAMESTOWN VA     0800   67 68  250/  6/ 10   N/A     0
DOMINION TERM VA 0700   69     230/  9/ 11 1019.5R
KIPTOPEKE VA     0700      65  240/  6/  8   N/A
CHES BAY BRIDGE  0700   69 64  200/ 13/ 14 1019.3R
CAPE HENRY VA    0700   69     210/  9/ 12   N/A
CHESAPEAKE LGHT  0700   68     230/ 18/ 19 1019.7R
WILLOUBY STN VA  0700   69     220/ 11/ 11 1020.5R
CAPE HENRY BUOY  0712      62                N/A     2/ 9
1ST LANDING BUOY 0800   67 65  220/ 10/ 12 1019.9R   1/ 2
CAPE CHARLES BUO 0726      62                N/A     2/10   2/10
OFFSHORE WE BUOY 0721      59                N/A     2/ 8   2/ 8
64NM E OF VA BCH 0750   62 56  250/ 12/ 12 1019.7R   3/ 5   2/ 5
DUCK PIER NC     0700   68 61  230/ 11/ 13 1019.6R
44100 DUCK FRF   0724      62                N/A     2/ 9
44056 DUCK FRF   0711      62                N/A     2/11
OREGON INLET NC  0700   68 70  240/  9/ 12 1020.5R
HATTERAS NC      0700   67 68  230/  5/  8 1020.7R
DIAMOND SHLS NC  0750   69 69  250/ 10/ 10 1021.4R   3/ 5   3/ 5
CAPE LOOKOUT NC  0800 C1F1C2F2C3F3C4F4C5F5C6F6C7F7C8M1C9!



USA.gov is the U.S. government's official web portal to all federal, state and local government web resources and services.